Regional Weather Roundup
Issued by NWS

Home | Current Version | Previous Version | Text Only | Print | Product List | Glossary Off
Versions: 1 2 3 4 5 6 7 8 9 10 11 12 13 14 15 16 17 18 19 20 21 22 23 24 25 26 27 28 29 30 31 32 33 34 35 36 37 38 39 40 41 42 43 44 45 46 47 48 49 50

000
ASUS43 KLOT 141303
RWRIL

ILLINOIS REGIONAL WEATHER ROUNDUP
NATIONAL WEATHER SERVICE CHICAGO/ROMEOVILLE IL
700 AM CST THU DEC 14 2017

NOTE: "FAIR" INDICATES FEW OR NO CLOUDS BELOW 12,000 FEET WITH NO
SIGNIFICANT WEATHER AND/OR OBSTRUCTIONS TO VISIBILITY.

* THESE STATIONS ARE NOT UNDER NWS QUALITY CONTROL. THEY ALSO MAY NOT
  REPORT WEATHER SUCH AS PRECIPITATION OR FOG.

ILZ001-002-007-009-015-016-024-141400-
NORTHWEST ILLINOIS

CITY           SKY/WX    TMP DP  RH WIND       PRES   REMARKS
MOLINE         CLOUDY    24  15  68 N5        30.05R WCI  18
STERLING*        N/A     16  10  77 MISG        N/A
SAVANNA*       CLOUDY    15   8  75 NE3       30.06R
$$

ILZ003-004-008-010-011-017-018-141400-
NORTH CENTRAL ILLINOIS

CITY           SKY/WX    TMP DP  RH WIND       PRES   REMARKS
ROCKFORD       CLOUDY    12   7  80 N6        30.05R WCI   3
FREEPORT*      CLOUDY    11   7  85 CALM      30.05S
ROCHELLE*      CLOUDY    12   8  84 N7        30.04R WCI   1
DE KALB*       CLEAR     12   8  83 N9        30.02R WCI   0
PERU*          CLEAR     15  10  78 N3        30.04R
$$

ILZ005-006-012>014-019>023-141400-
NORTHEAST ILLINOIS

CITY           SKY/WX    TMP DP  RH WIND       PRES   REMARKS
CHICAGO-OHARE  PTCLDY    17   9  70 NW13      30.00R WCI   4
CHICAGO-MIDWAY PTCLDY    18  11  74 NW12      30.01R WCI   5
AURORA         CLEAR     12   8  84 N8        30.02R WCI   0
LANSING*       CLOUDY    21  16  79 W7        29.99S WCI  13
JOLIET*        CLEAR     17  12  82 CALM      30.02R
WAUKEGAN       CLEAR     13   8  81 NW8       30.00R WCI   2
DUPAGE AIRPORT MOCLDY    14  10  84 N8        30.00R WCI   3
KANKAKEE*      CLOUDY    19  13  77 NW5       30.01R WCI  13
WHEELING       CLEAR     15   9  76 NW9       30.03R WCI   3
MORRIS*        CLEAR     14   9  81 N3        30.01S
ROMEOVILLE*    CLEAR     15  11  85 N7        30.01R WCI   5
$$

LMZ740>746-141400-
SOUTHERN LAKE MICHIGAN

STATION/POSITION SKY/WX   TEMP    WIND        PRES    VSBY  WAVE
                          AIR SEA DIR/SP/G                  HT/PER
                          (F)     (DEG/KT/KT) (MB)    (MI)  (FT/S)
HARRISON CRIB              20     310/ 15/ 16   N/A
BURNHAM HARBOR             20     290/  9/ 11   N/A
CALUMET HARBOR             20     290/  8/ 12 1014.9R
BURNS HARBOR               24     100/  5/  7 1015.9R
MICHIGAN CITY              20      90/  7/  9   N/A
$$

ILZ025>027-034>036-040-047-049-050-058-095>099-141400-
WEST-CENTRAL ILLINOIS

CITY           SKY/WX    TMP DP  RH WIND       PRES   REMARKS
QUINCY         CLOUDY    27  17  66 NE7       30.03R WCI  19
GALESBURG*     CLOUDY    24  18  78 NE5       30.05R WCI  18
MACOMB*        CLOUDY    25  17  73 N7        30.05R WCI  17
JACKSONVILLE*  CLOUDY    24  17  73 NW3       30.03R
PITTSFIELD*    CLOUDY    28  19  68 N6        30.04R WCI  21
$$

ILZ028>032-037-038-041>044-048-051>054-059>061-141400-
CENTRAL ILLINOIS

CITY           SKY/WX    TMP DP  RH WIND       PRES   REMARKS
PONTIAC        CLEAR     16  13  89 N8        30.02R WCI   5
BLOOMINGTON    PTCLDY    17  14  88 N7        30.01R WCI   8
DECATUR        CLOUDY    22  16  78 N10       30.01R WCI  11
PEORIA         CLOUDY    21  14  74 N5        30.04R WCI  15
LACON*         CLEAR     18  11  75 N5        30.03R WCI  11
LINCOLN*       MOCLDY    22  17  82 CALM      30.02S
SPRINGFIELD    PTCLDY    24  17  74 N7        30.03R WCI  16
TAYLORVILLE    MOCLDY    25  17  71 NE10      30.02R WCI  15
$$

ILZ033-039-045-046-055>057-062-063-141400-
EAST-CENTRAL ILLINOIS

CITY           SKY/WX    TMP DP  RH WIND       PRES   REMARKS
CHAMPAIGN      CLOUDY    24  17  74 N10       29.99R WCI  14
DANVILLE*      FLURRIES  25  19  80 NW8       29.96R WCI  16
RANTOUL*       CLOUDY    25  19  77 NW12      30.00R WCI  14
MATTOON        CLOUDY    24  18  77 NW10      29.98R WCI  14
PARIS*         CLOUDY    27  20  76 N7        29.99S WCI  19
$$

ILZ079-100>102-141400-
SOUTHWEST ILLINOIS

CITY           SKY/WX    TMP DP  RH WIND       PRES   REMARKS
ALTON          CLOUDY    28  19  69 N12       30.03R WCI  18
CAHOKIA*       CLOUDY    31  18  58 NE7       30.04R WCI  24
SPARTA*        CLOUDY    31  23  74 N6        30.03R WCI  25
$$

ILZ064>066-069>071-074>076-080>082-084>086-088>090-092>094-141400-
SOUTH-CENTRAL ILLINOIS

CITY           SKY/WX    TMP DP  RH WIND       PRES   REMARKS
CARBONDALE     CLOUDY    33  23  66 N8        30.01R WCI  26
CAIRO*         CLOUDY    36  27  71 N5        30.00R WCI  32
EFFINGHAM*     CLOUDY    28  20  72 NW7       30.02R WCI  21
MARION         CLOUDY    34  23  64 N12       30.01R WCI  25
MT. VERNON     CLOUDY    30  20  66 NE8       30.03R WCI  22
CENTRALIA*     CLOUDY    31  21  68 CALM      30.02R
SALEM*         CLOUDY    31  19  61 N6        30.02R WCI  25
METROPOLIS*    CLOUDY    36  26  66 N5        29.99R WCI  32
$$

ILZ067-068-072-073-078-083-087-091-141400-
SOUTHEAST ILLINOIS

CITY           SKY/WX    TMP DP  RH WIND       PRES   REMARKS
LAWRENCEVILLE  CLOUDY    27  20  75 NW8       29.99R WCI  19
FLORA*         CLOUDY    29  21  70 N6        30.02R WCI  23
FAIRFIELD*     CLOUDY    29  20  70 N3        30.02R
HARRISBURG*    CLOUDY    32  22  66 N9        30.02R WCI  24
ROBINSON*      CLOUDY    27  20  76 NW6       30.00R WCI  20
CARMI*         MOCLDY    28  21  75 N7        30.01R WCI  21
$$

ABBREVIATIONS USED IN REMARKS
   TC - TEMPERATURE IN CELSIUS
  WCI - WIND CHILL INDEX
   HX - HEAT INDEX
  VSB - VISIBILITY
$$





USA.gov is the U.S. government's official web portal to all federal, state and local government web resources and services.